Weather History for Lihue, HI

Change the Weather History Date:

Monday, December 10, 2012

  Actual Average Record
Temperature  
Mean Temperature 78 °F 74 °F  
Max Temperature 81 °F 79 °F 85 °F (1995)
Min Temperature 75 °F 68 °F 56 °F (1972)
Degree Days  
Heating Degree Days 0 0  
Month to date heating degree days 0 0  
Since 1 July heating degree days 0 0  
Cooling Degree Days 13 9  
Month to date cooling degree days 112 90  
Year to date cooling degree days 3953 3781  
Growing Degree Days 28 (Base 50)    
Moisture  
Dew Point 66 °F    
Average Humidity 69    
Maximum Humidity 79    
Minimum Humidity 58    
Precipitation  
Precipitation 0.00 in 0.17 in 0.81 in (2010)
Month to date precipitation 3.62 1.61  
Year to date precipitation 40.43 33.46  
Snow  
Snow 0.00 in - - ()
Month to date snowfall 0.0  
Since 1 July snowfall 0.0  
Snow Depth 0.00 in    
Sea Level Pressure  
Sea Level Pressure 30.02 in    
Wind  
Wind Speed 20 mph (ENE)    
Max Wind Speed 28 mph    
Max Gust Speed 32 mph    
Visibility 10 miles    
Events      
T = Trace of Precipitation, MM = Missing Value Source: NWS Daily Summary

Daily Weather History Graph

Daily Weather History Graph

Search for Another Location

Airport:

Trip Planner

Search our weather history database for the weather conditions in past years. The results will help you decide how hot, cold, wet, or windy it might be!

Date:

Astronomy

Dec. 10, 2012 Rise Set
Actual Time 7:05 AM HST 5:55 PM HST
Civil Twilight 6:41 AM HST 6:19 PM HST
Nautical Twilight 6:13 AM HST 6:47 PM HST
Astronomical Twilight 5:46 AM HST 7:14 PM HST
Moon 4:15 AM HST (12/10) 3:44 PM HST (12/10)
Length of Visible Light 11h 37m
Length of Day
10h 49m
Waning Crescent, 9% of the Moon is Illuminated
Dec 10
Waning Crescent
Dec 12
New
Dec 19
First Quarter
Dec 28
Full
Jan 4
Last Quarter

Hourly Weather History & Observations

Time (HST) Temp. Heat Index Dew Point Humidity Pressure Visibility Wind Dir Wind Speed Gust Speed Precip Events Conditions
12:53 AM 75.9 °F - 68.0 °F 76% 30.00 in 10.0 mi East 21.9 mph 27.6 mph N/A   Partly Cloudy
1:53 AM 75.9 °F - 66.9 °F 74% 29.99 in 10.0 mi East 21.9 mph - N/A   Scattered Clouds
2:04 AM 75.2 °F - 66.2 °F 73% 29.99 in 10.0 mi East 20.7 mph 27.6 mph N/A   Mostly Cloudy
2:53 AM 75.9 °F - 66.9 °F 74% 29.98 in 10.0 mi East 18.4 mph - N/A   Mostly Cloudy
3:25 AM 75.2 °F - 66.2 °F 73% 29.98 in 10.0 mi East 18.4 mph - N/A   Overcast
3:53 AM 75.9 °F - 68.0 °F 76% 29.97 in 10.0 mi East 18.4 mph - N/A   Overcast
4:53 AM 75.9 °F - 68.0 °F 76% 29.97 in 10.0 mi East 19.6 mph - N/A   Scattered Clouds
5:10 AM 75.2 °F - 68.0 °F 78% 29.98 in 10.0 mi East 20.7 mph - N/A   Mostly Cloudy
5:53 AM 75.9 °F - 66.9 °F 74% 29.99 in 10.0 mi East 23.0 mph 27.6 mph N/A   Mostly Cloudy
6:53 AM 75.0 °F - 66.9 °F 76% 30.01 in 10.0 mi East 20.7 mph - N/A   Mostly Cloudy
7:53 AM 75.9 °F - 66.0 °F 71% 30.01 in 10.0 mi East 23.0 mph 27.6 mph N/A   Mostly Cloudy
8:05 AM 75.2 °F - 66.2 °F 73% 30.02 in 10.0 mi East 21.9 mph - N/A   Scattered Clouds
8:53 AM 77.0 °F - 66.0 °F 69% 30.03 in 10.0 mi East 19.6 mph 27.6 mph N/A   Scattered Clouds
9:53 AM 78.1 °F - 66.0 °F 66% 30.04 in 10.0 mi ENE 24.2 mph 32.2 mph N/A   Partly Cloudy
10:26 AM 80.6 °F 82.7 °F 66.2 °F 61% 30.05 in 10.0 mi East 19.6 mph 25.3 mph N/A   Mostly Cloudy
10:53 AM 79.0 °F - 66.0 °F 64% 30.04 in 10.0 mi ENE 19.6 mph - N/A   Mostly Cloudy
11:41 AM 80.6 °F 82.3 °F 64.4 °F 58% 30.04 in 10.0 mi ENE 20.7 mph 26.5 mph N/A   Mostly Cloudy
11:48 AM 80.6 °F 82.7 °F 66.2 °F 61% 30.04 in 10.0 mi East 20.7 mph - N/A   Mostly Cloudy
11:53 AM 80.1 °F 82.3 °F 66.9 °F 64% 30.03 in 10.0 mi East 17.3 mph 26.5 mph N/A   Mostly Cloudy
12:53 PM 81.0 °F 83.3 °F 66.9 °F 62% 30.01 in 10.0 mi ENE 19.6 mph - N/A   Mostly Cloudy
1:34 PM 80.6 °F 82.3 °F 64.4 °F 58% 30.00 in 10.0 mi East 21.9 mph 27.6 mph N/A   Scattered Clouds
1:53 PM 80.1 °F 81.9 °F 64.9 °F 60% 29.99 in 10.0 mi East 21.9 mph 26.5 mph N/A   Clear
2:53 PM 79.0 °F - 64.9 °F 62% 29.99 in 10.0 mi ENE 18.4 mph 27.6 mph N/A   Clear
3:42 PM 78.8 °F - 66.2 °F 65% 30.00 in 10.0 mi ENE 18.4 mph - N/A   Overcast
3:53 PM 78.1 °F - 64.9 °F 64% 30.00 in 10.0 mi ENE 17.3 mph - N/A   Mostly Cloudy
4:27 PM 77.0 °F - 64.4 °F 65% 30.01 in 10.0 mi ENE 19.6 mph 27.6 mph N/A   Scattered Clouds
4:53 PM 75.9 °F - 64.9 °F 69% 30.01 in 10.0 mi ENE 17.3 mph 25.3 mph N/A   Clear
5:53 PM 75.9 °F - 63.0 °F 64% 30.01 in 10.0 mi ENE 17.3 mph - N/A   Partly Cloudy
6:53 PM 75.9 °F - 64.0 °F 67% 30.03 in 10.0 mi ENE 19.6 mph - N/A   Mostly Cloudy
7:53 PM 75.9 °F - 64.0 °F 67% 30.05 in 10.0 mi ENE 21.9 mph - N/A   Mostly Cloudy
8:44 PM 75.2 °F - 64.4 °F 69% 30.07 in 10.0 mi ENE 21.9 mph - N/A   Mostly Cloudy
8:53 PM 75.0 °F - 64.0 °F 69% 30.06 in 10.0 mi East 19.6 mph - N/A   Mostly Cloudy
9:17 PM 75.2 °F - 64.4 °F 69% 30.08 in 10.0 mi East 19.6 mph 26.5 mph N/A   Mostly Cloudy
9:53 PM 75.9 °F - 64.0 °F 67% 30.08 in 10.0 mi East 18.4 mph - N/A   Mostly Cloudy
10:53 PM 75.9 °F - 64.9 °F 69% 30.09 in 10.0 mi ENE 20.7 mph - N/A   Mostly Cloudy
11:53 PM 75.0 °F - 64.0 °F 69% 30.08 in 10.0 mi East 18.4 mph - N/A   Mostly Cloudy